RH
14 14 13 13 13 12 12 11 10 11 11 13 14 14 15 15 22 18 12 17 15 22 29 18 22 26 16 18 20 23 30 35 42 42 43 44 41 40 34 26 20 18 23 25 26 27 26 25 23 21 21 19 18 16 14 13 11 11 9 9 8 8 8 8 9 9 9 9 9 9 9 9 10 10 10 11 10 10 10 9 9 10 10 10 9 9
17 16 16 15 15 15 15 16 15 15 15 14 15 18 15 18 34 26 12 18 16 23 32 19 19 24 18 17 17 20 26 29 36 39 38 38 35 35 29 22 20 24 29 31 35 36 32 30 28 26 25 23 22 20 17 14 13 11 10 9 9 8 8 7 8 8 9 9 9 9 9 9 10 10 10 10 10 10 10 9 10 10 9 10 9 9
18 17 17 16 17 17 17 18 18 18 17 17 17 18 17 21 29 22 13 17 15 20 28 17 17 24 17 15 17 20 25 29 33 36 35 32 30 28 24 21 23 29 34 37 42 43 40 38 36 34 33 32 30 26 22 19 16 13 11 10 10 10 10 10 9 9 9 9 9 9 9 10 9 10 10 10 11 10 11 10 10 11 10 10 10 9
17 15 15 17 17 16 17 18 18 19 18 19 18 17 21 19 19 26 25 18 15 18 21 17 14 18 15 12 15 15 21 27 29 31 30 26 24 22 21 23 27 34 39 42 48 49 48 46 45 45 43 41 37 33 30 26 21 17 13 13 13 13 13 13 12 11 12 11 10 10 9 10 10 10 10 10 11 11 11 11 10 11 10 9 10 9
17 14 13 15 15 14 15 15 15 17 16 16 18 17 20 17 17 29 28 20 24 21 15 16 14 16 17 12 12 13 13 18 20 21 22 22 21 22 23 25 30 36 42 48 52 53 53 51 52 53 50 47 42 38 34 29 26 21 17 15 15 16 15 14 14 13 14 14 13 13 12 13 12 12 12 11 11 11 11 12 11 11 11 10 9 9
17 16 16 16 15 15 15 15 15 16 15 14 15 16 17 18 16 18 20 18 22 24 18 15 16 24 26 14 9 12 10 10 12 13 16 20 22 24 28 32 36 41 48 55 57 58 60 59 59 59 59 57 50 44 39 32 28 23 20 18 17 18 17 15 15 14 14 14 14 15 14 14 14 14 14 13 12 12 12 11 12 11 10 10 9 9
13 11 12 12 13 14 14 16 15 15 19 18 17 18 15 15 15 14 15 13 19 34 31 18 16 26 34 29 16 9 8 8 8 9 12 17 23 27 33 38 41 47 54 56 56 58 61 63 64 65 65 62 56 51 45 36 29 24 21 20 18 19 18 16 16 15 15 15 15 14 14 14 15 14 13 13 12 12 12 11 11 11 9 10 9 8
13 11 10 9 8 8 8 14 17 15 20 24 26 27 21 16 15 14 14 14 22 29 22 16 15 16 27 35 25 11 9 11 9 8 7 11 20 25 31 38 42 47 52 54 55 56 59 62 65 66 64 61 57 51 47 42 34 26 22 20 19 18 18 16 15 15 14 14 13 13 13 13 13 13 12 11 11 9 9 9 8 9 8 8 8 7
21 19 19 17 16 15 13 17 20 15 15 23 25 22 22 22 19 19 18 18 21 19 20 27 21 16 25 32 27 13 6 11 13 9 5 7 15 22 28 35 41 45 47 51 58 62 65 64 63 62 60 58 53 46 46 44 34 26 23 21 19 17 16 15 13 13 13 12 12 10 10 11 10 11 10 9 8 7 6 6 6 5 5 5 5 5
28 27 26 26 24 23 22 22 21 18 20 29 29 19 19 21 17 22 26 27 27 23 25 30 30 35 42 42 39 24 11 13 13 6 3 7 13 19 26 34 42 46 45 46 51 58 62 60 56 54 52 53 47 41 41 38 34 33 27 19 17 17 16 15 13 12 10 9 8 8 7 8 7 7 7 6 6 5 4 4 4 4 4 4 4 4
24 24 23 22 22 21 22 22 22 22 24 29 28 21 21 23 21 23 24 24 26 25 21 23 34 38 34 39 42 29 19 17 14 12 8 9 14 19 27 35 39 42 42 40 40 44 47 47 46 43 42 43 38 34 34 30 31 34 27 21 20 17 16 13 9 8 8 6 4 5 4 4 5 5 4 5 4 3 3 3 3 3 3 3 3 3
17 17 17 15 15 16 17 17 19 20 21 23 25 28 30 32 34 32 30 29 24 27 30 26 31 26 19 33 36 23 23 17 10 15 13 12 19 24 32 38 42 44 42 40 38 36 35 34 31 27 26 27 28 34 39 35 30 26 27 28 23 19 20 19 12 5 3 3 2 1 2 1 2 3 3 3 3 3 2 2 2 2 2 2 3 3
16 12 10 13 12 11 14 15 16 16 16 18 19 27 30 34 47 46 47 60 54 45 43 34 28 20 21 38 36 27 31 20 10 13 13 16 20 23 29 35 37 38 33 29 29 27 24 20 17 16 17 21 31 43 46 38 28 22 26 26 22 22 25 26 25 14 4 2 1 -0 1 1 2 3 3 3 2 2 2 1 1 1 1 1 2 3
20 17 6 10 12 12 15 14 17 19 21 24 25 28 25 32 56 53 45 68 76 60 50 43 35 27 33 48 41 31 28 18 15 17 14 17 18 16 21 23 24 24 21 19 19 19 17 16 17 18 21 26 37 43 37 30 25 25 27 23 22 25 24 32 46 40 22 10 5 3 0 -1 0 1 2 3 3 3 2 1 1 1 1 1 2 2
22 36 25 15 12 12 15 14 15 15 17 25 28 27 24 26 42 46 46 66 79 74 67 60 49 36 38 48 42 38 37 29 27 25 20 20 19 18 19 20 23 26 31 34 34 32 25 24 29 30 33 38 42 42 37 35 32 30 29 24 20 21 21 35 50 45 30 22 18 14 9 5 4 3 3 3 2 2 1 1 1 1 1 1 1 2
11 27 22 10 7 8 10 10 8 8 14 23 21 19 25 29 31 32 36 44 51 56 57 52 41 31 33 40 40 42 44 43 41 36 32 28 24 24 22 24 30 37 51 66 73 70 54 44 42 39 43 51 56 56 51 49 44 37 32 24 17 16 16 24 31 33 34 34 28 21 17 15 12 9 8 8 8 8 9 9 7 6 5 4 4 3
6 13 13 10 10 8 8 9 7 7 15 23 25 26 27 29 29 26 27 34 35 28 26 27 23 20 26 33 39 45 44 44 48 45 42 38 33 31 27 26 32 43 68 91 97 97 89 78 66 55 53 56 60 64 62 59 56 47 38 31 26 25 25 27 34 42 47 41 31 32 35 31 31 31 25 20 21 24 27 29 24 19 15 13 12 10
8 12 15 15 12 9 9 10 8 7 8 11 19 27 26 26 32 32 31 36 35 27 29 31 24 23 32 35 38 45 41 35 39 39 38 40 38 36 33 30 30 39 70 99 101 98 101 99 91 83 78 73 70 73 74 70 63 56 48 43 42 44 45 45 46 49 49 41 40 54 64 60 59 60 46 35 34 35 36 38 37 34 27 22 20 18
8 8 11 11 8 8 10 10 11 11 9 11 16 18 20 25 34 43 48 46 43 45 49 44 33 33 44 46 36 32 32 32 37 38 36 37 39 39 38 38 39 42 64 95 104 99 100 101 100 99 96 95 93 90 88 81 72 65 57 50 50 53 55 52 49 47 46 46 52 63 71 70 66 62 52 47 52 55 51 46 44 43 36 28 24 23
8 8 9 10 7 7 8 8 13 16 14 20 23 17 17 21 23 30 36 38 47 64 75 72 58 46 49 56 47 41 48 46 40 46 49 47 48 48 47 49 51 50 58 79 96 100 98 97 98 99 98 100 101 100 99 94 86 80 75 68 64 65 65 59 55 51 45 48 57 61 64 64 57 54 56 56 61 69 70 64 58 53 46 38 30 27
8 7 7 9 6 5 10 13 23 31 26 21 20 19 25 33 40 44 36 29 37 55 70 69 54 39 47 68 71 65 71 63 43 48 61 62 63 64 61 57 54 50 52 63 80 92 97 99 100 99 96 95 98 99 97 97 98 96 91 88 84 82 82 74 65 61 54 50 52 50 51 52 47 46 51 50 50 56 60 60 58 54 53 49 41 34
9 7 6 7 5 6 11 13 20 26 20 12 11 15 22 28 43 58 55 50 55 64 68 63 54 49 50 60 58 48 58 66 48 42 54 60 65 70 69 61 50 46 49 56 67 80 90 95 94 89 83 82 91 95 88 89 100 102 98 100 99 97 97 89 77 68 63 59 57 53 51 51 51 50 49 49 47 46 47 48 47 47 50 55 54 47
8 7 6 6 5 6 8 7 7 10 9 7 5 5 6 9 20 32 37 46 55 57 57 59 66 70 63 53 43 30 36 51 46 42 49 52 55 62 65 63 53 42 43 49 56 64 71 74 73 71 71 73 78 82 80 83 93 95 98 101 97 94 96 90 79 69 67 70 69 67 65 60 56 55 54 58 55 46 45 46 46 47 49 56 59 54
9 9 8 7 7 6 6 5 3 5 5 4 15 31 36 27 20 26 35 45 51 47 47 61 74 82 81 70 54 40 36 36 37 44 48 46 51 55 55 63 68 58 45 38 40 45 49 54 56 58 66 73 72 67 65 74 86 91 93 91 85 91 97 89 78 70 72 79 73 69 74 71 64 59 56 61 58 47 44 43 40 40 39 44 51 47
9 10 10 9 8 5 5 6 6 9 7 5 24 54 58 35 25 45 56 51 54 57 57 71 78 73 76 72 59 55 53 48 54 64 59 49 51 55 55 64 81 85 72 54 44 40 35 39 44 43 49 58 61 59 54 58 75 87 91 89 88 94 92 86 86 80 78 85 84 79 79 76 79 83 76 72 70 64 61 58 51 45 39 38 42 40
8 9 8 7 7 6 6 8 9 12 13 9 13 23 24 14 25 64 79 66 71 73 62 70 73 60 62 61 47 45 45 41 51 65 66 56 49 51 60 65 70 77 77 65 53 44 34 33 39 40 40 41 43 51 54 50 55 64 73 83 90 89 85 89 94 81 68 73 80 80 77 73 84 98 95 91 89 81 76 74 67 59 54 53 49 39
8 8 7 7 7 7 7 9 9 10 11 13 13 12 16 15 19 38 48 54 78 86 76 81 82 71 74 68 51 49 45 38 41 50 55 52 42 41 51 59 61 62 63 62 57 52 44 37 37 38 40 41 40 50 62 61 55 52 54 63 71 72 75 89 94 79 66 68 71 72 76 81 92 101 102 101 95 82 74 70 65 62 67 74 70 55
8 7 7 8 8 9 10 10 10 13 16 20 22 21 23 28 31 34 28 31 57 74 73 75 70 62 67 62 53 55 53 48 57 69 69 56 43 40 40 43 51 54 54 56 56 55 52 44 37 32 33 44 52 57 65 70 68 63 59 57 56 54 58 70 83 90 91 89 86 86 89 94 100 103 103 101 92 82 74 65 57 61 73 80 76 68
8 8 9 9 9 10 13 13 13 17 22 27 33 34 35 37 45 55 52 44 48 52 51 53 48 40 44 44 42 48 50 49 59 75 81 70 59 59 51 39 39 41 41 42 41 41 41 38 34 31 32 48 63 65 66 71 71 71 73 70 62 56 55 56 63 79 94 98 97 99 99 100 101 102 103 101 95 88 79 68 59 59 69 72 67 66
11 14 13 12 14 14 16 20 21 24 28 33 39 42 44 44 44 50 56 58 59 53 45 47 45 38 45 53 50 51 56 59 65 73 78 75 69 66 60 47 39 38 38 37 36 36 36 35 35 34 34 42 54 59 63 69 70 69 72 73 64 52 48 47 44 49 63 75 85 91 95 99 101 100 101 101 98 89 79 73 65 55 51 51 47 46
17 22 19 20 22 19 22 29 31 34 37 39 43 46 45 47 46 45 47 51 57 57 55 58 55 46 51 60 57 56 58 63 72 80 81 78 68 56 52 51 45 41 40 39 38 38 38 37 37 36 36 36 40 48 55 61 68 73 73 70 68 62 55 54 55 55 53 56 67 77 84 93 99 100 100 97 93 87 80 76 72 60 51 49 45 39
28 33 32 35 32 26 31 38 39 42 44 40 41 43 43 47 49 50 54 55 58 64 62 57 52 48 53 60 59 60 65 69 75 78 78 76 65 51 49 52 48 43 42 41 40 40 39 39 38 37 38 37 37 42 47 48 57 73 77 74 79 83 77 74 82 91 89 83 83 85 84 88 93 96 100 99 96 93 85 78 75 70 65 63 60 50
46 49 50 51 46 38 39 42 38 38 38 35 32 31 35 42 45 49 54 55 62 74 69 54 49 55 64 70 68 67 72 77 77 73 71 70 63 56 55 55 51 47 44 42 41 41 40 39 40 39 37 38 39 40 44 44 45 56 63 64 70 76 77 79 85 93 98 98 99 97 90 87 86 86 89 93 95 96 91 84 79 73 69 69 67 59
63 63 58 52 44 36 33 31 26 24 23 21 21 20 22 27 29 33 36 34 39 52 55 48 45 46 51 55 59 66 71 74 74 71 66 64 62 60 58 56 55 52 49 47 45 42 43 41 41 42 40 39 39 39 41 44 45 46 46 46 49 51 53 57 57 57 63 70 75 75 70 67 65 63 63 62 63 66 68 69 67 61 54 51 51 52
56 47 38 30 24 19 16 14 13 14 13 13 14 14 15 17 18 21 22 21 21 25 30 34 32 31 35 37 39 47 54 61 70 72 68 65 65 66 64 62 63 61 56 55 51 48 49 50 49 49 47 44 43 41 41 42 43 46 48 48 47 44 42 40 36 36 38 39 41 41 39 37 37 37 37 36 35 36 38 41 44 45 42 37 34 37
27 21 17 15 13 12 11 11 11 10 11 11 11 10 12 13 14 16 16 15 16 15 17 24 26 22 22 23 24 29 36 46 59 62 61 64 67 71 71 69 70 71 66 62 63 62 60 60 59 57 56 54 51 49 47 45 44 45 48 51 53 53 52 48 45 44 42 39 37 36 34 34 33 32 32 32 32 31 30 31 33 37 39 38 36 37
16 15 15 14 14 13 12 12 11 11 10 10 10 10 11 10 12 17 18 15 14 16 18 26 30 23 16 17 18 20 26 35 46 50 48 47 49 52 57 59 61 65 62 59 62 65 63 62 61 59 59 59 58 58 57 55 53 50 49 51 52 53 54 52 51 50 48 46 44 42 41 40 38 38 37 37 36 35 33 32 31 31 35 39 40 40
16 17 16 15 14 15 14 12 11 11 11 12 16 16 13 12 15 18 21 18 14 15 17 22 24 19 17 19 16 19 28 38 57 70 56 36 34 36 38 42 42 41 43 43 46 51 53 53 53 53 54 56 60 63 63 62 61 59 57 56 55 54 53 52 52 52 49 47 45 43 42 40 38 37 37 37 37 36 35 35 33 32 33 35 37 36
16 16 16 16 16 15 15 14 14 13 12 15 20 17 11 12 16 19 26 28 21 17 18 23 24 21 21 20 17 25 36 47 79 100 66 29 35 47 44 41 39 36 38 40 42 46 48 47 48 49 51 53 57 62 63 64 65 65 64 64 63 62 60 58 58 57 54 51 50 47 45 43 40 39 37 37 37 36 36 37 36 35 34 34 35 34
16 16 17 18 19 20 20 18 15 18 19 17 18 16 10 13 18 24 33 34 25 20 22 27 30 29 27 25 23 30 38 46 76 94 63 31 43 57 54 52 51 50 52 52 51 52 52 52 53 53 53 55 58 60 61 61 62 64 65 67 68 67 66 65 64 62 59 57 55 52 50 48 45 43 42 41 40 39 39 38 38 38 37 36 36 35
18 18 19 21 23 24 26 22 19 25 27 19 17 19 17 21 32 37 34 28 24 27 29 31 36 35 32 31 32 37 39 37 47 61 60 55 57 55 53 56 56 56 57 56 56 57 57 58 58 56 56 58 58 60 61 60 60 61 62 64 65 65 66 67 66 64 62 60 57 55 53 51 49 47 45 45 43 42 42 41 41 40 39 37 37 37
23 21 21 25 29 29 30 30 29 32 30 20 21 27 25 28 38 36 28 28 33 37 37 36 38 37 35 37 39 42 43 39 36 44 56 63 62 56 55 57 56 55 56 57 58 59 58 57 56 55 57 59 59 61 61 60 59 59 59 60 60 62 65 66 64 62 61 59 56 54 52 51 49 48 47 47 47 45 43 42 41 39 38 37 35 34
28 29 31 37 39 36 37 43 44 41 35 28 31 35 32 33 39 37 36 43 46 43 42 41 39 38 38 40 41 43 44 43 42 44 49 55 58 58 57 56 56 57 56 56 58 58 56 54 53 53 55 57 58 60 61 59 57 55 56 56 57 61 63 62 60 57 54 53 50 48 48 47 44 43 44 44 43 42 40 39 38 36 35 32 31 30
42 42 43 46 48 44 46 54 56 50 46 45 45 44 41 41 44 43 45 48 47 43 42 41 39 38 37 38 40 41 41 40 40 41 42 44 46 47 47 50 54 55 54 53 54 55 53 50 47 46 46 47 48 51 53 53 50 49 50 51 55 58 57 55 52 48 45 44 42 40 41 41 40 39 39 38 37 36 35 33 32 32 30 30 30 28
56 53 50 48 50 51 50 53 55 53 52 53 52 49 46 44 44 44 43 41 41 40 37 34 34 34 32 33 34 33 32 32 32 32 31 30 30 30 31 33 37 40 42 41 41 41 39 36 34 32 30 28 27 28 30 31 31 31 33 35 38 41 41 41 39 36 33 34 34 35 34 35 37 36 31 27 26 25 26 25 24 23 24 25 24 21
55 54 52 49 49 49 46 46 47 46 45 45 44 43 41 39 38 38 36 34 34 33 31 30 29 29 28 29 29 28 28 26 24 23 23 22 20 20 19 19 20 21 22 21 21 22 21 19 19 20 18 17 15 14 15 15 14 14 14 14 16 17 18 20 20 18 18 19 19 20 20 20 22 20 15 12 11 11 13 13 10 10 12 14 14 13
49 48 47 45 44 43 41 40 40 38 38 37 36 36 35 34 34 33 31 31 31 30 29 29 28 27 27 27 26 26 25 23 21 20 19 18 17 16 15 15 14 13 13 13 13 14 14 13 14 14 13 13 13 12 12 10 10 10 9 8 8 8 8 9 8 8 9 8 7 8 8 8 8 7 5 4 4 5 5 5 6 7 6 4 3 4
43 42 41 39 38 36 34 33 32 30 29 28 27 27 26 26 27 27 26 27 27 26 27 28 27 27 27 26 26 25 24 21 20 18 17 17 16 15 14 14 13 11 12 12 12 12 12 12 12 12 12 12 11 10 10 9 9 8 7 7 7 7 7 7 7 7 7 6 6 5 4 4 4 3 3 3 3 4 4 4 6 3 2 12 23 27
34 32 30 28 26 24 22 21 20 19 18 18 17 17 17 16 17 17 17 18 18 18 19 19 19 20 20 20 21 21 21 19 17 15 15 14 12 11 10 10 9 9 10 10 12 13 12 12 11 11 11 10 9 9 8 8 7 7 6 6 5 5 5 5 5 5 4 4 4 4 3 4 3 2 4 4 4 7 6 6 9 10 13 29 41 44
21 19 18 17 16 15 15 15 14 13 13 13 13 13 12 12 12 11 11 10 10 10 10 10 10 10 10 11 12 12 12 13 11 9 9 8 6 5 4 3 4 4 6 7 9 9 9 10 10 9 9 8 7 7 6 5 5 5 5 4 4 4 5 5 3 3 3 3 3 4 4 4 4 5 8 9 10 13 11 6 13 34 53 56 42 32
16 15 14 14 14 14 14 14 13 13 14 14 14 13 12 12 11 10 10 9 8 8 8 7 7 7 7 7 8 8 8 7 5 3 2 1 1 1 2 2 3 3 4 6 7 8 8 8 7 7 7 7 6 6 6 5 5 5 5 6 6 5 4 4 4 4 4 3 5 8 10 12 14 14 16 18 20 21 21 16 15 36 69 81 67 53
Wind_Speed
11 11 13 14 13 12 11 13 13 13 14 15 16 17 19 20 21 25 25 23 23 21 24 27 24 27 28 26 27 27 27 28 29 31 30 29 30 29 29 28 26 24 24 25 24 23 25 27 28 28 28 28 29 30 30 31 31 30 30 29 27 26 27 28 30 31 31 31 30 29 29 29 29 28 28 28 28 28 27 27 26 26 25 25 24 23
13 14 16 16 14 12 11 12 12 12 13 14 15 16 17 17 18 22 22 21 21 19 23 26 22 25 26 24 25 24 25 27 28 31 30 30 29 29 29 28 26 24 24 23 21 21 22 24 26 27 28 28 29 30 31 32 32 32 31 30 28 26 26 27 28 30 31 31 31 30 30 30 30 30 30 30 30 30 29 28 28 27 27 26 25 25
16 19 19 18 16 15 14 13 13 13 13 13 15 15 15 16 19 20 20 21 21 18 22 24 20 23 24 21 21 21 22 24 27 28 29 29 28 29 30 27 25 24 23 22 20 21 22 23 25 26 27 27 28 30 31 32 32 32 32 31 29 27 26 26 26 26 28 30 30 31 31 31 32 31 32 31 31 30 30 29 29 29 28 28 27 26
19 22 21 20 19 18 16 16 15 15 15 16 16 16 17 19 18 18 21 23 21 20 23 23 20 22 24 21 21 21 21 23 25 27 28 29 29 30 30 27 25 24 23 22 22 23 24 24 25 25 26 27 28 29 31 32 32 33 32 31 29 28 27 26 26 25 25 27 28 28 29 30 31 31 31 31 30 30 30 30 30 29 29 28 28 27
22 22 19 21 21 19 18 18 18 18 19 19 18 18 20 22 19 19 24 24 21 21 24 24 22 22 25 25 25 24 23 24 26 28 29 29 30 30 29 27 25 25 24 23 24 25 27 27 26 26 27 27 27 28 30 32 33 34 33 32 30 28 27 28 27 26 26 26 26 26 27 27 28 29 30 30 30 30 30 30 30 29 29 29 28 28
23 22 20 21 21 19 19 19 19 19 20 21 20 21 23 24 23 24 27 26 23 23 26 26 22 21 26 28 29 28 25 26 28 30 31 30 30 30 29 28 26 25 24 24 24 26 29 29 29 29 27 26 27 28 30 33 34 35 35 33 30 28 28 28 28 27 26 27 27 26 26 26 27 27 28 28 29 29 29 29 29 29 29 29 29 28
22 21 21 21 20 20 19 19 20 19 20 22 21 22 23 25 25 26 28 27 24 23 26 26 20 21 25 26 29 29 26 28 30 30 32 31 31 30 30 29 28 26 25 25 25 27 29 30 30 30 28 27 28 29 31 34 35 35 35 34 31 28 29 29 28 27 26 27 27 26 26 26 26 26 26 27 27 27 28 28 28 28 28 28 28 28
21 20 20 20 19 18 18 20 21 18 19 21 21 21 23 24 26 27 27 26 25 26 29 28 24 25 25 24 28 29 25 27 29 31 33 32 31 32 31 31 30 28 27 26 26 27 28 30 31 30 29 29 30 31 32 34 36 36 35 34 30 29 29 30 29 28 27 28 28 27 26 26 26 26 25 26 25 26 26 26 27 27 27 27 27 27
20 20 20 19 17 16 18 20 19 17 18 20 21 22 22 24 26 26 27 26 27 29 28 27 27 27 25 25 28 30 28 27 30 34 34 32 32 32 31 31 30 29 28 27 27 27 27 29 30 30 30 31 33 34 34 35 37 37 35 32 29 29 29 29 30 28 27 28 28 27 27 26 25 25 25 25 25 24 24 24 25 25 25 26 26 26
19 20 20 19 18 17 20 20 19 18 18 19 21 21 22 24 24 25 26 25 28 30 27 25 27 26 24 22 24 28 28 27 32 36 35 33 33 33 32 31 31 31 30 28 28 28 29 31 32 32 32 33 35 35 35 37 38 38 35 31 29 29 28 29 29 28 27 28 28 27 27 26 25 24 24 24 24 23 23 23 23 23 23 23 24 24
19 19 19 19 18 18 19 19 19 19 18 18 20 20 21 23 23 24 25 26 27 28 26 26 27 27 26 22 24 28 28 28 32 35 34 33 34 33 33 32 32 32 31 29 29 29 31 32 32 33 33 33 35 35 36 37 38 35 31 29 28 28 27 28 29 28 27 27 26 26 26 25 24 23 23 23 22 22 22 21 21 21 21 21 21 22
17 17 18 18 17 17 18 19 19 19 19 18 18 18 19 21 22 23 24 26 25 23 24 26 25 25 23 21 25 28 26 27 30 31 31 32 32 32 32 32 31 31 30 29 29 29 30 31 31 31 32 34 34 33 32 33 33 29 26 26 26 26 26 27 28 28 27 25 25 25 25 24 23 22 21 21 22 21 21 21 20 20 20 19 19 20
14 14 15 15 15 15 15 17 17 18 18 17 17 17 19 20 21 22 21 20 19 20 23 25 24 24 21 20 25 25 21 22 25 27 28 27 28 28 28 28 27 27 27 26 27 27 28 27 27 28 30 30 29 28 28 28 27 23 22 25 25 25 26 27 27 26 25 24 24 24 24 23 23 21 21 20 21 21 21 21 20 19 19 19 18 19
10 11 12 12 12 12 12 13 14 16 16 16 16 16 19 19 19 21 21 16 15 19 24 24 24 24 20 20 26 23 20 20 21 23 24 23 23 22 22 22 20 20 20 19 21 22 21 20 21 23 24 24 23 24 24 23 22 20 22 25 25 25 26 26 26 25 24 23 23 23 24 23 23 22 22 21 21 21 21 21 20 20 19 18 18 17
8 9 10 10 10 10 10 11 12 14 15 15 15 16 18 19 19 21 20 16 15 17 20 22 23 24 22 24 27 23 20 21 21 22 23 23 23 21 20 18 16 16 15 15 16 17 17 16 16 17 18 17 18 19 19 19 19 20 22 24 25 25 25 26 26 24 23 22 21 21 22 22 22 22 22 22 21 21 21 21 21 20 19 18 17 17
9 11 12 12 12 11 11 12 13 14 15 15 16 17 19 19 21 22 22 21 21 21 23 25 27 27 25 26 27 25 22 22 22 23 24 24 24 22 20 18 15 14 14 14 14 16 17 16 15 15 14 14 15 17 18 18 18 20 22 23 25 24 24 25 25 23 22 21 20 20 20 20 20 21 21 21 21 21 21 21 21 21 20 20 19 18
10 12 14 14 14 14 14 15 15 15 16 15 16 18 19 19 21 22 23 24 25 28 29 30 31 29 26 27 27 26 24 23 23 23 23 23 24 23 21 19 16 14 14 16 16 18 19 18 18 17 15 16 17 18 19 19 19 20 22 23 24 24 24 24 24 23 22 21 20 20 20 19 18 19 19 19 20 20 20 20 20 21 21 21 20 20
13 14 15 14 16 17 16 17 18 18 18 18 18 19 19 20 22 23 24 24 26 28 28 29 31 29 26 27 28 26 26 25 23 23 23 23 23 23 22 20 18 16 16 18 19 20 22 22 20 19 19 20 21 21 21 21 21 22 23 24 23 22 23 24 24 23 23 23 21 20 20 19 18 18 19 19 19 20 20 20 19 19 20 20 21 21
17 18 18 17 18 19 19 19 20 20 20 19 20 21 20 21 23 23 23 24 25 26 26 26 28 27 24 25 27 28 28 26 23 23 23 23 22 23 22 21 20 18 18 20 21 21 22 24 24 24 23 23 23 24 24 25 25 25 26 26 26 25 24 24 25 25 25 24 22 21 22 21 21 21 21 20 19 19 19 19 19 18 18 18 19 20
20 20 22 21 21 20 20 21 20 21 21 21 22 24 23 22 24 24 25 26 25 24 24 23 24 26 24 22 25 28 27 25 25 24 23 21 21 22 23 22 21 19 19 20 23 24 24 25 26 26 26 25 26 26 27 28 29 29 29 29 29 28 26 25 24 24 25 25 24 24 24 24 24 24 22 21 20 20 19 18 18 19 18 18 18 19
24 24 24 25 25 22 21 21 20 21 21 22 23 24 23 22 22 23 24 26 28 26 26 28 29 30 26 22 22 25 25 25 26 25 24 22 22 23 24 24 23 22 21 21 23 25 26 27 27 27 27 28 28 28 27 28 30 31 32 31 30 29 28 26 24 24 25 26 25 26 25 26 27 27 26 25 25 25 25 23 23 22 21 21 21 21
28 28 27 28 28 26 25 24 23 24 25 25 25 24 24 24 23 23 23 24 26 27 28 30 32 31 29 28 29 30 29 29 28 28 28 26 25 25 25 26 26 24 23 23 24 25 27 27 28 28 29 30 30 29 29 30 32 35 34 33 30 30 29 28 26 26 26 26 27 26 26 27 27 28 28 28 28 29 29 29 28 27 25 24 24 24
31 31 31 31 30 29 29 29 27 28 28 28 28 27 28 28 27 27 29 27 27 29 30 30 31 31 31 34 35 34 34 35 34 33 33 32 29 28 28 28 28 28 27 26 26 27 28 28 27 28 30 31 31 31 30 30 33 36 35 34 33 32 31 30 28 28 28 28 28 27 28 29 29 30 29 28 28 29 30 31 31 31 29 27 26 25
34 34 34 34 34 33 33 32 30 30 30 30 28 26 26 28 28 28 30 29 29 32 31 31 32 32 30 32 33 34 36 38 39 37 37 37 35 32 32 31 31 32 31 31 30 30 31 31 31 30 30 32 33 33 33 32 34 36 36 37 38 36 35 33 31 31 31 30 29 29 30 32 33 34 34 33 32 31 31 32 32 31 31 29 28 28
36 36 36 35 36 37 36 34 33 32 31 31 29 26 27 31 31 28 27 29 30 30 30 32 34 32 30 33 35 37 37 38 39 38 37 39 39 37 36 34 34 34 34 35 34 33 33 34 35 34 33 33 35 36 36 36 37 38 37 37 37 36 36 36 35 33 33 33 33 34 34 36 37 36 35 34 33 33 32 32 33 32 32 31 30 30
37 37 38 37 36 37 36 35 35 34 34 34 33 31 32 35 33 28 27 29 29 28 30 33 34 34 35 39 41 41 40 40 40 39 39 40 41 40 39 38 37 37 37 37 37 36 36 36 36 36 35 35 36 37 38 39 40 41 41 40 39 37 37 38 38 37 37 38 40 40 39 39 39 38 36 34 33 33 33 33 34 34 34 34 33 32
38 39 39 38 38 38 37 37 37 37 37 37 37 36 35 36 35 32 33 33 30 30 31 31 32 33 37 40 42 40 40 41 41 41 42 43 43 42 41 41 41 41 40 39 39 39 39 38 38 38 37 36 36 38 39 40 41 42 43 43 42 41 39 39 41 42 42 43 45 45 45 44 43 41 39 37 37 37 37 36 37 36 35 36 36 35
40 40 40 40 39 39 39 39 39 38 37 38 39 39 38 37 36 35 38 37 34 34 35 33 35 39 40 40 40 39 39 41 40 37 37 40 41 42 42 43 43 43 43 43 42 42 42 42 41 40 39 38 38 39 40 41 41 42 42 43 44 44 42 42 43 45 45 46 47 48 48 48 47 43 40 40 40 39 39 39 39 38 38 38 38 37
41 40 41 41 40 40 40 40 40 39 39 39 39 39 39 38 37 36 37 37 37 39 38 36 40 44 44 43 42 41 41 41 41 38 36 37 39 39 39 40 41 42 43 43 42 42 41 41 41 40 40 39 39 41 42 43 43 43 43 43 43 44 45 45 47 48 48 48 48 48 47 46 44 41 39 41 42 41 40 39 40 40 40 40 39 39
41 41 42 42 41 41 40 40 41 41 40 40 39 39 39 40 40 39 37 36 37 38 38 39 41 43 42 42 42 42 41 40 40 40 39 39 39 40 39 40 41 41 41 41 41 40 40 39 39 40 39 39 41 42 44 45 46 46 46 46 46 47 47 48 50 51 52 52 52 52 51 49 46 43 41 43 44 44 43 42 42 42 41 41 41 42
42 42 43 43 42 42 41 40 41 41 42 42 41 41 40 41 41 41 40 39 39 39 40 41 42 42 42 43 44 42 41 40 39 37 38 38 40 44 45 43 43 43 42 41 41 41 40 40 39 39 40 40 41 43 45 47 48 48 48 48 48 49 49 49 49 51 53 54 54 54 54 53 51 48 45 45 46 47 46 46 45 44 43 43 44 45
42 43 44 43 44 44 42 41 42 42 43 44 44 43 42 42 42 41 41 41 41 42 43 45 45 46 45 44 44 42 40 41 40 39 40 42 43 46 47 45 45 46 45 43 43 42 41 41 40 40 40 41 42 43 45 48 49 50 50 50 50 50 50 50 50 50 50 52 53 53 54 54 52 50 48 47 48 48 49 48 48 47 47 48 48 48
43 43 43 43 45 44 43 44 44 43 44 46 46 45 44 43 43 43 43 43 42 42 44 46 46 45 44 44 43 41 40 42 43 43 44 44 44 45 45 45 46 47 46 46 45 44 43 43 42 41 41 41 43 44 45 47 48 50 52 53 53 53 53 53 53 53 52 53 54 54 54 54 54 53 52 51 51 51 51 51 51 51 52 53 53 53
43 44 43 44 45 44 43 45 45 43 44 46 46 45 44 44 44 44 44 45 44 43 44 45 45 45 46 47 45 42 42 44 47 48 48 47 46 46 46 46 46 47 47 47 46 46 45 44 44 43 43 43 44 45 46 47 48 49 50 52 54 55 56 57 57 57 57 57 57 57 57 57 58 57 57 57 57 57 57 56 56 56 56 57 57 57
43 43 43 43 44 43 43 45 46 45 46 46 45 44 45 45 45 44 45 45 45 44 44 44 46 46 46 46 45 43 44 45 47 49 49 47 46 47 47 48 47 47 48 48 47 47 46 45 45 45 45 45 45 46 47 47 48 49 49 50 52 54 56 57 58 58 59 59 60 60 60 60 61 61 60 60 60 60 60 60 60 60 60 59 59 58
42 42 42 42 43 44 44 46 47 47 47 48 47 46 45 45 45 45 46 47 46 46 45 43 44 46 46 45 45 45 45 45 46 48 48 47 46 46 48 48 47 48 50 49 48 47 47 48 48 48 47 47 47 47 48 48 49 49 50 50 51 52 54 55 56 57 58 59 59 59 60 60 60 60 60 60 60 60 60 60 60 60 60 60 59 58
42 42 43 44 44 45 45 46 47 48 48 49 48 47 47 46 46 46 46 47 46 46 45 42 42 44 45 44 44 44 44 44 44 46 46 46 47 47 48 49 49 50 51 50 49 49 50 50 50 50 49 49 49 49 49 50 50 50 50 51 52 53 53 54 55 56 56 57 57 57 58 58 59 59 59 59 59 59 59 59 59 58 58 58 58 58
43 42 43 44 44 44 45 45 46 46 47 46 46 46 46 45 45 45 45 46 46 46 45 44 45 45 45 44 44 43 42 40 38 39 42 44 46 47 47 48 49 49 50 50 50 50 50 50 51 51 50 50 50 50 51 51 51 51 51 52 53 53 54 54 54 55 55 55 55 55 56 56 57 57 58 58 58 58 58 57 57 57 57 57 57 58
43 43 43 43 43 43 44 44 44 44 45 43 43 45 45 44 43 44 43 44 45 45 45 45 45 46 46 46 44 43 41 37 33 35 42 45 44 43 44 45 46 47 48 49 49 50 50 50 51 50 50 50 51 52 52 52 52 52 51 51 52 52 53 53 53 54 54 53 53 54 54 54 54 55 55 55 55 55 55 55 55 55 55 55 56 56
43 43 43 43 42 42 43 44 43 43 43 42 42 45 45 43 43 44 43 44 45 44 44 44 44 45 45 45 44 43 42 39 36 39 44 45 43 42 43 44 44 44 46 47 48 49 49 50 50 50 50 50 51 51 52 52 52 52 51 51 51 51 51 51 52 53 52 52 52 53 53 53 53 52 52 53 53 53 53 53 53 53 53 54 54 54
43 43 43 42 42 42 43 44 44 43 44 44 44 45 44 43 44 45 45 46 46 45 45 44 44 44 45 45 44 43 44 44 43 43 44 43 43 44 45 45 45 45 46 47 47 48 48 48 49 49 49 49 49 50 50 51 51 51 51 50 50 50 50 50 51 51 51 51 52 52 52 52 52 52 52 52 52 52 52 52 52 52 52 52 52 51
42 43 42 41 41 42 42 43 44 44 45 45 45 45 45 44 45 47 46 46 45 45 45 45 44 45 45 44 44 44 44 45 45 44 43 43 44 44 44 45 45 46 46 46 46 46 47 47 48 48 48 48 48 49 49 49 50 50 50 50 50 50 50 50 50 50 50 50 51 51 52 52 53 53 53 53 53 53 53 52 52 51 51 50 49 49
41 41 40 40 40 41 41 42 43 44 45 45 45 46 46 46 47 47 45 44 44 44 44 44 45 45 45 45 44 44 45 45 45 45 45 45 45 45 45 45 46 46 46 46 46 46 47 47 47 48 48 48 48 48 48 48 48 49 50 50 50 50 51 51 51 50 50 50 50 51 52 52 53 54 54 54 54 53 53 52 51 51 50 50 48 47
39 39 39 38 39 40 39 40 41 42 43 44 44 45 46 46 46 46 45 44 44 45 44 45 45 45 46 46 45 45 46 46 46 46 47 47 47 47 47 46 46 47 48 47 47 48 49 48 48 48 47 47 48 48 48 48 49 49 49 50 50 51 51 51 52 51 50 50 51 51 52 52 53 53 53 53 53 53 53 52 50 50 49 49 48 47
35 36 36 37 37 37 37 38 39 40 40 42 43 45 46 46 45 46 46 46 46 46 46 46 46 47 47 47 47 47 47 47 47 48 48 48 48 48 48 48 47 48 48 48 49 50 50 49 48 48 47 47 47 47 47 48 48 48 48 49 50 50 51 52 52 51 51 50 51 51 51 51 52 53 54 53 52 52 52 51 50 49 49 48 47 46
33 34 34 35 36 36 37 37 37 38 40 41 43 44 45 45 45 47 48 48 48 48 49 49 49 49 49 49 49 49 49 49 49 49 50 50 50 50 50 50 49 49 49 50 50 51 51 49 48 49 49 49 49 49 49 50 50 49 49 49 50 50 51 52 52 52 52 52 52 52 52 51 53 54 55 54 53 53 53 53 51 50 49 49 48 47
34 34 34 36 37 37 37 37 38 39 40 41 43 44 45 45 46 48 49 50 50 50 50 51 51 51 51 51 51 51 51 51 51 51 51 52 52 51 51 51 51 51 52 52 52 52 52 51 51 51 51 50 51 51 51 51 51 50 50 51 52 52 52 53 53 54 54 54 54 54 54 54 55 56 56 55 55 55 55 54 53 52 51 49 48 45
35 35 35 37 38 39 38 39 40 41 42 43 44 44 45 46 47 48 49 51 52 52 52 52 52 53 54 54 53 54 54 54 54 54 53 53 53 53 53 52 52 53 53 54 54 54 53 53 54 53 53 53 53 53 53 52 51 51 51 51 52 53 54 54 55 55 55 56 56 56 56 56 57 56 56 56 55 54 53 52 51 49 45 43 42 39
37 37 38 39 40 40 40 41 42 43 43 44 45 45 46 47 48 49 50 51 52 53 53 53 53 54 55 55 56 56 56 56 56 56 56 56 55 55 55 55 55 55 56 56 56 56 56 56 55 55 54 54 55 55 55 54 53 53 52 52 52 53 54 54 54 55 55 56 56 56 56 55 54 53 51 50 48 47 46 43 40 38 35 34 35 34
38 38 40 41 41 41 41 42 43 44 44 44 44 45 46 47 48 49 50 51 51 52 53 53 54 54 55 55 57 58 57 57 57 58 58 57 57 57 57 56 57 58 58 59 59 58 58 58 57 57 56 56 56 56 55 54 53 53 53 52 53 53 53 54 54 54 54 54 52 51 49 47 45 43 41 38 36 35 34 32 29 29 29 28 29 31
38 39 40 42 42 42 42 42 43 43 42 41 42 43 43 44 45 46 46 47 47 47 48 50 50 52 52 53 54 56 56 55 55 56 56 56 56 56 56 57 57 58 59 59 59 59 59 58 58 58 58 57 57 56 54 53 52 51 51 50 50 51 51 51 51 49 47 44 41 38 36 34 34 32 29 26 25 25 24 23 23 26 28 27 25 27
Wind_Direction
244 242 244 242 240 236 232 237 237 236 233 228 227 225 223 223 226 234 235 233 231 230 240 240 237 245 248 248 248 247 248 250 254 257 258 259 261 263 264 267 267 265 264 263 264 264 262 262 263 264 262 262 263 264 265 267 267 267 267 265 262 258 255 252 251 252 253 253 251 251 252 252 254 255 258 259 260 259 259 258 257 257 257 257 256 256
244 243 244 245 243 237 231 236 240 237 234 229 225 223 223 222 231 237 236 237 234 230 242 243 239 247 249 250 252 248 246 246 248 254 257 259 261 263 265 266 265 264 264 265 266 264 261 260 261 262 263 264 265 265 266 267 267 267 267 266 265 262 258 255 253 252 253 254 253 252 252 253 254 256 257 258 258 258 258 257 257 256 256 257 257 258
243 245 244 245 244 240 235 236 238 239 238 235 230 229 228 227 236 245 244 243 240 234 244 246 241 249 253 252 255 251 245 244 246 250 254 257 258 260 261 261 262 263 264 266 265 261 256 255 258 262 265 266 266 267 268 268 268 267 267 266 266 264 261 259 257 255 255 254 254 253 253 253 254 255 256 257 257 257 257 256 256 256 256 257 258 259
243 246 246 246 246 245 244 243 244 246 244 241 240 236 236 237 239 250 252 248 246 242 249 254 250 254 260 257 255 252 245 243 245 248 251 253 255 256 258 260 261 262 263 263 259 255 253 253 256 260 262 264 266 269 270 269 269 268 267 266 265 265 264 263 262 260 259 257 255 254 253 254 254 255 255 256 256 256 256 255 255 256 256 257 258 259
247 252 252 250 250 248 248 248 248 250 250 247 245 242 243 245 240 243 251 253 252 251 254 258 259 261 264 262 257 254 249 245 245 247 250 252 254 257 261 263 262 261 262 261 258 255 254 253 254 256 259 263 265 267 268 268 268 268 267 265 263 264 264 263 263 261 260 260 259 257 255 255 255 255 255 255 255 255 254 254 255 256 256 257 258 258
251 255 254 253 254 253 252 252 249 248 251 251 247 245 246 248 246 244 252 256 259 261 259 256 257 262 264 263 260 257 255 254 251 250 251 252 255 258 262 263 262 262 260 258 258 257 255 254 253 256 259 261 263 264 265 266 266 267 267 265 263 262 262 262 262 261 259 260 260 260 258 257 256 255 255 254 254 253 253 253 254 255 256 257 258 258
253 256 256 257 258 258 258 258 254 248 249 252 250 246 244 247 249 249 252 257 258 260 260 257 252 253 259 263 263 260 258 259 257 254 253 252 254 255 257 259 259 259 257 255 255 254 253 253 254 256 257 258 260 261 263 264 265 265 266 266 264 262 262 261 260 259 259 260 261 260 259 257 255 254 252 252 252 252 253 254 255 257 258 259 259 260
255 257 258 260 261 263 262 259 258 252 248 252 252 248 247 248 250 252 254 256 255 254 259 262 256 249 251 257 261 261 259 259 260 258 255 253 253 254 254 255 256 256 255 255 255 254 253 253 253 254 256 257 257 258 260 262 264 265 266 267 266 264 263 262 261 259 258 259 260 259 257 255 252 251 250 249 250 251 253 255 258 260 261 262 262 262
258 260 261 262 264 263 258 257 259 256 251 254 257 255 253 253 254 257 257 257 258 258 259 264 263 257 253 253 259 262 259 258 261 259 257 256 254 254 254 254 255 255 254 253 253 253 253 252 252 251 251 253 255 257 258 260 263 266 267 267 266 264 264 265 264 262 259 258 258 257 256 253 251 249 248 249 250 251 253 255 257 259 261 262 263 263
261 262 263 264 264 260 260 262 263 259 252 254 259 260 259 259 260 260 259 259 260 261 260 260 263 262 257 254 259 260 255 252 257 260 260 258 256 256 256 255 255 256 255 253 251 250 250 249 249 249 249 252 255 256 256 258 261 264 266 266 262 260 262 264 266 264 260 257 256 255 254 252 251 249 249 249 251 252 254 256 256 258 259 261 264 266
263 264 265 264 263 262 264 266 265 262 258 255 260 265 266 268 268 266 264 262 263 268 268 262 260 261 261 259 257 260 258 251 254 260 260 258 258 258 258 258 257 258 259 258 255 251 248 247 248 251 252 253 255 256 257 258 259 262 265 262 257 258 260 262 264 264 261 257 254 253 253 252 251 251 251 252 253 254 255 257 257 258 259 260 263 265
264 265 266 267 266 266 267 268 266 266 264 261 263 266 267 270 272 271 270 268 268 271 269 263 262 264 267 261 256 260 263 255 252 256 257 257 258 259 259 260 260 260 261 261 259 256 253 251 252 253 252 252 254 255 255 258 260 262 263 259 257 259 260 261 262 262 261 257 253 252 252 252 252 252 253 254 255 256 257 257 258 258 258 258 260 263
261 260 263 266 267 266 266 268 269 269 268 266 263 261 262 264 265 266 267 270 274 272 267 268 270 271 270 262 259 260 260 254 252 254 256 256 256 257 258 259 259 259 258 255 253 253 253 253 251 248 247 248 248 248 250 253 257 259 260 261 261 260 260 261 261 262 262 259 255 254 254 252 253 254 255 256 257 258 259 260 259 258 257 256 257 259
258 261 263 264 265 264 263 265 267 269 270 269 263 258 259 260 259 264 267 266 268 270 271 272 271 270 267 260 260 259 254 252 251 252 254 254 255 255 255 256 256 254 250 244 240 242 245 245 243 240 241 241 239 241 246 252 256 259 260 263 264 262 261 261 260 262 265 265 261 258 257 255 255 256 257 259 259 260 261 262 263 262 260 258 257 258
251 260 265 265 266 267 264 261 261 263 266 266 264 259 260 260 260 266 269 262 258 265 272 272 270 271 268 262 264 263 255 251 249 249 252 253 255 255 253 251 251 250 244 238 238 242 244 242 239 237 237 238 240 244 250 256 260 261 261 264 265 264 263 263 263 265 266 266 264 259 258 258 257 258 259 261 263 264 265 266 267 268 267 265 263 263
246 253 262 267 267 266 266 264 263 266 266 265 267 266 264 264 264 265 266 265 266 268 271 272 272 274 272 268 268 266 260 255 252 250 249 251 253 254 251 245 244 246 237 232 237 243 249 254 252 250 248 247 248 250 253 256 259 261 262 264 266 267 268 267 267 267 264 263 263 263 262 260 259 260 260 263 266 269 270 271 270 270 270 270 269 268
255 256 261 267 270 268 266 267 267 266 265 263 266 268 266 266 267 267 268 269 270 270 272 272 273 274 273 271 268 265 262 258 254 252 249 249 251 252 251 244 241 239 228 226 232 232 235 245 254 258 260 260 259 256 255 256 257 259 260 262 265 269 270 268 268 267 265 265 268 269 266 264 262 261 261 263 265 267 269 271 272 271 270 269 268 268
267 268 266 264 267 270 269 269 269 267 266 264 263 265 268 270 270 270 270 270 270 271 272 273 274 274 271 269 268 266 265 262 258 256 254 251 249 249 250 247 244 238 224 223 232 232 226 228 237 247 253 256 258 256 254 255 255 255 255 256 258 263 265 264 264 265 265 268 269 264 261 263 264 263 265 267 267 267 267 268 270 272 272 270 268 266
274 276 276 270 266 270 271 271 272 273 274 272 268 267 267 266 265 266 267 268 270 273 274 274 275 273 268 266 269 271 271 269 264 260 257 254 250 247 247 246 246 241 226 219 228 236 232 227 227 232 237 240 243 247 248 250 252 251 250 252 254 257 261 262 262 262 262 264 262 258 258 261 263 264 266 268 269 268 265 264 264 265 267 269 268 267
277 277 278 278 275 273 272 271 271 273 275 275 275 277 277 270 265 264 264 266 268 271 272 271 269 270 269 266 270 274 272 269 266 262 257 254 251 247 243 241 242 242 234 222 224 232 236 237 234 231 233 234 234 236 239 245 251 253 253 253 254 257 258 258 259 261 260 258 255 256 258 259 262 264 264 264 264 262 260 259 259 258 259 260 262 264
280 280 279 280 282 281 275 271 267 266 268 268 272 279 283 280 274 268 265 266 265 263 264 267 267 269 269 262 262 267 266 266 267 262 256 252 250 246 241 237 239 242 240 231 226 228 233 240 243 242 243 241 237 237 241 246 248 251 257 256 254 254 252 251 254 258 259 257 255 257 259 261 263 265 265 265 263 260 259 260 261 261 260 260 260 261
282 283 282 281 284 282 276 273 270 267 266 266 267 267 267 269 270 268 265 264 262 258 258 265 268 268 265 260 261 263 262 266 269 265 258 252 247 244 241 239 239 239 239 234 228 226 227 234 241 245 248 248 245 244 250 252 244 242 249 252 251 252 252 251 251 253 256 257 257 259 259 260 261 263 264 265 263 262 261 262 263 263 263 262 261 260
282 283 283 282 282 280 277 278 277 273 271 270 269 267 265 264 262 262 264 263 262 260 258 261 263 263 264 266 268 266 262 265 269 268 262 256 251 247 245 243 242 240 239 237 233 229 227 229 235 241 246 250 250 248 251 255 250 245 247 250 255 259 256 253 254 255 255 256 257 258 259 258 259 260 261 260 261 262 261 262 263 263 263 262 261 261
282 282 282 282 282 281 280 281 279 277 276 276 274 271 267 264 260 258 259 259 258 258 259 261 261 261 266 269 270 266 262 263 265 266 265 262 258 255 253 251 249 248 245 243 241 239 237 235 236 238 239 243 248 249 250 252 251 251 252 255 259 261 258 256 258 260 259 258 256 256 256 257 257 258 258 256 258 261 263 265 266 265 266 265 264 266
279 279 279 280 281 282 283 283 281 279 277 274 272 269 264 264 265 264 262 260 256 253 254 256 257 260 265 266 265 262 260 260 261 263 265 265 262 259 259 257 255 254 252 250 248 247 246 244 243 243 242 242 243 246 247 248 247 248 251 253 256 258 258 256 257 260 260 258 255 253 253 254 255 256 256 256 259 264 266 268 269 270 271 271 269 268
276 276 277 277 277 278 279 279 278 278 277 276 275 273 268 267 268 266 265 265 262 257 256 255 257 260 262 263 264 264 264 264 264 263 266 268 266 263 261 260 258 257 257 257 256 255 253 250 248 248 250 250 248 246 245 245 246 247 249 250 252 255 257 254 254 259 260 256 253 252 253 255 255 253 252 253 256 259 263 266 268 271 273 273 270 267
272 273 273 274 274 274 274 273 274 275 276 277 277 275 271 269 267 264 260 259 259 259 258 256 259 260 261 263 267 269 271 273 272 270 270 270 269 267 264 263 262 261 260 260 260 260 260 258 255 253 254 256 254 251 247 245 245 246 248 249 250 253 254 253 254 258 258 255 254 254 254 255 252 249 250 252 254 256 259 261 263 266 268 269 268 267
270 270 271 271 271 272 272 272 273 273 272 272 273 273 272 270 268 265 263 261 260 258 255 254 256 258 258 261 264 267 271 274 275 274 273 270 268 267 265 264 263 263 263 263 262 262 263 263 262 260 258 257 254 251 250 248 247 246 247 248 250 251 251 252 253 253 252 252 254 254 255 254 250 248 251 255 256 257 259 260 261 262 263 264 267 267
270 270 270 270 270 270 270 271 271 271 269 268 268 268 269 268 266 265 264 264 263 261 259 258 257 258 261 263 265 267 269 270 271 271 270 269 268 267 265 264 265 265 265 265 265 264 263 263 262 262 260 256 252 250 249 248 248 247 247 247 249 250 249 250 251 251 250 251 252 252 253 254 251 249 252 255 257 258 259 260 261 261 261 264 267 268
270 270 270 270 270 269 269 269 269 269 269 267 265 265 265 264 264 263 262 262 263 263 264 264 261 261 263 266 267 267 266 266 267 266 264 264 265 266 265 267 269 268 266 266 266 265 265 263 262 261 260 256 252 250 250 250 249 248 248 249 250 251 251 250 251 252 252 253 253 254 256 257 256 253 252 255 258 260 261 260 260 260 262 265 268 270
271 271 271 271 271 270 269 268 268 268 268 267 265 264 263 262 263 263 264 264 264 264 263 262 261 260 262 263 264 265 265 264 263 262 262 261 263 268 270 271 272 270 267 267 266 265 265 264 262 260 259 257 254 251 250 250 250 250 250 251 252 252 252 251 250 251 252 252 253 254 256 258 259 258 257 258 260 262 262 261 260 258 259 263 267 269
271 271 272 272 272 271 271 270 268 268 268 268 266 265 264 264 264 265 265 264 263 263 262 260 261 262 263 263 262 261 262 262 260 259 261 264 267 271 272 272 272 271 269 268 267 266 265 264 263 261 259 258 257 254 251 250 250 250 251 251 251 251 250 249 247 247 249 251 252 253 254 256 257 258 260 260 261 262 262 262 260 258 257 260 265 267
271 271 272 272 272 272 273 271 270 268 268 268 268 268 267 266 266 265 263 262 261 261 263 264 264 264 262 261 261 260 258 258 259 259 260 264 269 270 270 269 270 270 270 270 269 267 266 265 264 263 261 259 258 257 256 254 251 250 250 251 252 252 251 251 250 249 250 252 253 254 255 256 257 258 259 259 261 262 262 263 262 261 261 262 265 267
271 272 272 272 272 273 273 272 271 270 269 269 269 270 270 269 268 266 264 263 261 261 263 266 266 264 263 262 262 261 258 257 259 261 262 264 266 266 266 267 268 268 269 269 268 268 267 267 266 265 263 261 259 258 258 257 256 254 253 252 253 253 254 254 254 254 254 255 256 257 259 260 260 260 261 261 262 262 263 263 264 264 265 265 267 269
271 271 272 272 272 273 272 272 272 271 271 270 270 270 270 270 269 268 267 267 266 265 266 266 265 264 264 264 263 262 261 259 260 262 263 264 264 264 264 265 266 267 267 267 267 267 267 267 266 265 264 262 261 260 259 259 259 258 257 256 254 254 255 256 257 257 257 258 259 260 261 263 263 264 264 264 264 264 264 264 265 265 266 267 268 269
271 271 271 271 271 272 271 272 272 272 272 271 271 270 270 270 269 269 269 268 268 269 268 266 265 264 263 263 263 262 263 262 261 261 262 262 262 262 262 263 263 264 265 266 266 266 265 265 264 264 263 263 262 261 260 259 259 258 258 258 257 256 256 256 257 258 259 260 260 261 262 263 263 264 264 265 265 265 265 265 265 266 266 267 268 268
271 271 272 271 271 271 271 271 272 272 272 272 272 272 270 270 269 269 269 268 268 267 266 264 263 263 263 263 262 262 263 263 263 263 262 261 261 261 261 261 262 263 264 265 265 264 263 263 263 263 263 262 262 260 259 259 258 257 257 257 257 257 257 257 257 258 259 259 260 261 261 262 262 262 262 263 263 263 264 264 265 265 265 265 266 266
272 272 272 272 272 272 272 271 271 271 271 272 273 272 270 270 269 268 268 268 266 265 264 263 261 262 262 262 262 263 263 263 263 262 261 260 260 260 260 261 262 263 264 264 264 264 264 263 263 263 262 262 261 260 259 258 258 257 257 257 257 258 258 258 259 259 259 260 260 261 261 261 261 261 261 262 262 262 262 262 263 263 263 263 263 263
274 274 273 273 273 272 272 272 271 270 270 270 270 270 270 270 269 268 268 267 266 264 263 262 262 262 261 261 262 261 261 260 258 257 259 262 262 261 261 262 262 263 263 263 263 263 263 263 263 263 262 261 261 260 260 260 259 258 258 257 257 257 258 259 259 260 260 261 261 262 262 262 261 261 261 262 262 262 262 262 262 261 261 261 260 261
275 275 275 274 273 273 272 272 272 271 271 270 269 269 270 270 269 267 266 265 264 264 262 261 262 263 263 263 263 261 260 259 254 254 261 266 265 263 263 264 264 263 262 262 262 262 263 263 263 263 263 262 262 262 262 262 261 261 260 259 258 258 258 258 259 260 261 261 262 262 262 263 263 262 262 262 262 262 262 262 262 261 261 260 260 260
275 274 274 274 273 273 272 273 273 272 272 272 271 271 270 269 267 266 265 265 265 265 264 263 263 263 263 263 262 262 262 261 258 259 263 265 264 263 264 264 264 264 263 262 262 262 262 262 263 263 264 264 264 263 263 263 263 262 262 261 260 260 259 259 259 259 260 261 262 262 263 263 263 264 263 263 263 263 263 263 263 262 262 262 261 261
274 274 274 273 272 271 271 272 272 271 272 272 272 271 271 269 268 267 267 267 267 265 265 264 264 264 263 262 262 263 264 264 264 264 263 262 262 262 262 262 262 262 262 261 261 261 262 262 263 263 264 264 264 263 263 263 263 263 262 261 261 261 260 260 260 260 260 261 261 262 263 263 263 263 263 263 263 263 263 263 263 263 263 263 263 262
272 272 272 271 270 270 270 270 270 270 272 272 272 271 271 270 269 270 271 270 268 266 265 265 265 265 264 264 264 265 265 265 265 264 263 262 262 262 262 261 261 261 260 260 261 261 262 262 262 263 263 263 263 263 262 262 262 262 262 261 261 261 261 261 261 261 260 261 261 262 262 262 262 262 261 261 261 262 262 263 263 263 262 262 262 261
272 271 270 269 269 269 269 269 269 270 272 272 273 272 272 271 271 271 271 270 269 268 266 265 265 265 265 265 265 265 265 265 264 264 263 263 262 262 261 260 260 260 261 261 262 262 262 262 262 262 262 262 262 262 262 262 262 262 261 261 261 262 262 262 262 262 261 261 262 261 261 261 261 261 261 261 261 262 262 262 261 260 260 259 259 260
272 272 271 271 270 270 269 268 269 270 271 271 271 271 271 272 272 272 271 270 269 268 267 266 265 265 265 265 265 265 265 265 264 264 264 264 264 264 263 262 261 261 261 261 262 262 262 262 262 263 263 263 263 263 263 263 263 262 261 262 262 262 262 262 263 263 262 262 262 261 261 261 261 261 262 263 263 262 262 261 260 259 258 257 258 258
273 273 273 273 272 271 271 271 270 270 269 269 269 270 270 271 271 271 271 270 270 270 269 269 268 268 267 266 266 265 265 264 263 263 264 264 264 264 264 265 265 264 263 263 263 263 263 263 262 262 262 262 263 264 264 264 264 264 264 264 264 263 263 263 263 263 263 263 263 262 262 262 262 262 263 264 264 263 261 261 260 259 258 258 257 258
276 276 276 275 274 273 274 274 273 272 271 270 270 270 271 270 270 270 270 270 269 269 269 269 269 269 268 268 267 266 266 265 265 264 264 264 264 264 264 264 264 264 264 264 264 264 265 265 265 264 263 263 264 264 264 263 264 264 265 265 265 266 265 265 265 264 265 265 264 264 264 264 263 263 264 264 264 263 262 262 262 261 261 260 260 260
280 280 278 278 277 278 277 277 276 275 274 274 273 272 271 271 270 270 270 270 270 269 269 269 268 268 268 267 267 267 267 267 266 266 265 265 265 266 266 266 266 266 265 265 264 264 264 263 263 264 264 264 264 265 265 265 265 265 266 266 266 266 265 264 264 265 265 265 265 265 264 264 264 264 264 264 264 264 265 265 264 264 262 260 259 257
282 282 281 280 280 281 281 280 279 278 277 278 277 276 274 273 272 271 270 270 270 271 270 270 269 268 268 268 268 267 267 267 267 267 267 267 267 267 267 268 268 267 267 267 266 266 265 265 264 263 263 264 264 264 265 265 266 267 267 266 266 265 264 264 264 264 263 264 264 264 264 264 264 265 265 265 266 266 266 265 264 263 259 253 250 247
285 285 284 283 283 282 282 282 281 280 280 280 280 279 278 277 276 275 274 273 273 273 273 272 271 270 270 270 269 268 268 267 268 268 268 268 268 268 268 268 268 267 267 267 267 267 267 267 267 267 267 267 267 267 267 267 268 268 267 267 265 265 264 263 262 262 261 262 262 263 264 264 264 264 264 264 263 261 261 260 255 249 245 241 237 235
287 286 285 285 284 284 284 284 283 284 284 284 283 282 281 280 279 279 279 278 277 276 274 273 272 271 270 270 270 269 269 268 268 267 268 268 267 267 267 267 267 267 267 267 268 268 268 268 268 268 268 268 269 269 269 268 268 267 267 266 265 264 263 262 262 261 260 260 260 259 258 258 259 259 256 252 248 246 247 246 237 229 229 229 228 229